I2476 LIEE-LICJ

Flight info

Callsign I2476
Flight time N/A
Altitude 20000
Route CAR5N CAR M871 NEVOT ADAMI KAPIL M871 PAL PAL5L
Aircraft A320/M-S/7123

Departure

Time N/A
Airport Cagliari Elmas Airport (LIEE)

Arrival

Time 2026-05-05 19:32
Airport Falcone–Borsellino Airport (LICJ)
Time Latitude Longitude Altitude Speed Heading
2026-05-05 18:54 39.26128 9.04492 0 ft 0 kts 275°
2026-05-05 18:54 39.25939 9.04512 0 ft 0 kts 138°
2026-05-05 18:56 39.25933 9.04520 0 ft 11 kts 138°
2026-05-05 18:56 39.25719 9.04768 0 ft 79 kts 138°
2026-05-05 18:56 39.25166 9.05412 0 ft 140 kts 138°
2026-05-05 18:56 39.24371 9.06342 0 ft 175 kts 136°
2026-05-05 18:57 39.23771 9.07653 0 ft 215 kts 104°
2026-05-05 18:57 39.23436 9.09395 0 ft 237 kts 104°
2026-05-05 18:57 39.23000 9.11435 0 ft 259 kts 107°
2026-05-05 18:57 39.22501 9.13480 0 ft 278 kts 108°
2026-05-05 18:58 39.21885 9.15805 0 ft 298 kts 109°
2026-05-05 18:58 39.21203 9.18246 0 ft 315 kts 110°
2026-05-05 18:58 39.20466 9.20787 0 ft 330 kts 111°
2026-05-05 18:58 39.19724 9.23287 0 ft 342 kts 111°
2026-05-05 18:59 39.18911 9.25976 0 ft 351 kts 111°
2026-05-05 18:59 39.18045 9.28811 0 ft 350 kts 111°
2026-05-05 18:59 39.17298 9.31236 0 ft 299 kts 112°
2026-05-05 18:59 39.16618 9.33429 0 ft 249 kts 112°
2026-05-05 19:00 39.16067 9.35188 0 ft 231 kts 112°
2026-05-05 19:00 39.15492 9.37014 0 ft 234 kts 112°
2026-05-05 19:00 39.14901 9.38884 0 ft 237 kts 112°
2026-05-05 19:00 39.14313 9.40751 0 ft 241 kts 112°
2026-05-05 19:01 39.13718 9.42642 0 ft 244 kts 112°
2026-05-05 19:01 39.13106 9.44592 0 ft 247 kts 112°
2026-05-05 19:01 39.12470 9.46616 0 ft 249 kts 112°
2026-05-05 19:01 39.11828 9.48687 0 ft 250 kts 111°
2026-05-05 19:02 39.11221 9.50745 0 ft 252 kts 110°
2026-05-05 19:02 39.10627 9.52832 0 ft 254 kts 110°
2026-05-05 19:02 39.10051 9.54899 0 ft 256 kts 110°
2026-05-05 19:02 39.09492 9.56931 0 ft 258 kts 109°
2026-05-05 19:03 39.08951 9.58908 0 ft 261 kts 109°
2026-05-05 19:03 39.08364 9.61055 0 ft 263 kts 109°
2026-05-05 19:03 39.07767 9.63237 0 ft 265 kts 109°
2026-05-05 19:03 39.07182 9.65370 0 ft 267 kts 109°
2026-05-05 19:04 39.06564 9.67620 0 ft 269 kts 109°
2026-05-05 19:04 39.05946 9.69863 0 ft 271 kts 110°
2026-05-05 19:04 39.05310 9.72163 0 ft 282 kts 110°
2026-05-05 19:04 39.04632 9.74614 0 ft 301 kts 109°
2026-05-05 19:05 39.03932 9.77152 0 ft 318 kts 109°
2026-05-05 19:05 39.03229 9.79702 0 ft 317 kts 109°
2026-05-05 19:05 39.02509 9.82308 0 ft 325 kts 109°
2026-05-05 19:05 39.01774 9.84964 0 ft 338 kts 110°
2026-05-05 19:06 39.00993 9.87780 0 ft 353 kts 110°
2026-05-05 19:06 39.00156 9.90789 0 ft 369 kts 110°
2026-05-05 19:06 38.99307 9.93838 0 ft 383 kts 110°
2026-05-05 19:06 38.98434 9.96967 0 ft 397 kts 110°
2026-05-05 19:07 38.97517 10.00248 0 ft 409 kts 110°
2026-05-05 19:07 38.96872 10.02551 0 ft 417 kts 110°
2026-05-05 19:07 38.95584 10.07145 0 ft 431 kts 110°
2026-05-05 19:07 38.94559 10.10793 0 ft 440 kts 110°
2026-05-05 19:08 38.93523 10.14476 0 ft 441 kts 110°
2026-05-05 19:08 38.92510 10.18071 0 ft 440 kts 110°
2026-05-05 19:08 38.91472 10.21748 0 ft 440 kts 110°
2026-05-05 19:08 38.90437 10.25408 0 ft 440 kts 110°
2026-05-05 19:09 38.89424 10.28987 0 ft 441 kts 110°
2026-05-05 19:09 38.88379 10.32669 0 ft 441 kts 110°
2026-05-05 19:09 38.87346 10.36307 0 ft 440 kts 110°
2026-05-05 19:09 38.86348 10.39814 0 ft 440 kts 110°
2026-05-05 19:10 38.85343 10.43339 0 ft 440 kts 110°
2026-05-05 19:10 38.84325 10.46905 0 ft 441 kts 110°
2026-05-05 19:10 38.83301 10.50490 0 ft 441 kts 110°
2026-05-05 19:10 38.82249 10.54163 0 ft 440 kts 110°
2026-05-05 19:11 38.81219 10.57756 0 ft 440 kts 110°
2026-05-05 19:11 38.80162 10.61439 0 ft 440 kts 110°
2026-05-05 19:11 38.79171 10.64884 0 ft 441 kts 110°
2026-05-05 19:11 38.78136 10.68481 0 ft 441 kts 110°
2026-05-05 19:12 38.77104 10.72059 0 ft 440 kts 110°
2026-05-05 19:12 38.76395 10.74516 0 ft 440 kts 110°
2026-05-05 19:12 38.75046 10.79182 0 ft 440 kts 110°
2026-05-05 19:12 38.74347 10.81593 0 ft 440 kts 110°
2026-05-05 19:13 38.73312 10.85162 0 ft 441 kts 110°
2026-05-05 19:13 38.71902 10.90012 0 ft 440 kts 110°
2026-05-05 19:13 38.70856 10.93618 0 ft 440 kts 110°
2026-05-05 19:13 38.69791 10.97292 0 ft 440 kts 110°
2026-05-05 19:14 38.69167 10.99448 0 ft 440 kts 110°
2026-05-05 19:14 38.68118 11.03065 0 ft 441 kts 110°
2026-05-05 19:14 38.64169 11.16654 0 ft 440 kts 110°
2026-05-05 19:14 38.52310 11.57044 0 ft 441 kts 111°
2026-05-05 19:15 38.51181 11.60838 0 ft 440 kts 111°
2026-05-05 19:15 38.50121 11.64387 0 ft 438 kts 111°
2026-05-05 19:15 38.49124 11.67719 0 ft 434 kts 111°
2026-05-05 19:15 38.48034 11.71355 0 ft 437 kts 111°
2026-05-05 19:16 38.46961 11.74936 0 ft 428 kts 111°
2026-05-05 19:16 38.45900 11.78471 0 ft 425 kts 111°
2026-05-05 19:16 38.44905 11.81785 0 ft 422 kts 111°
2026-05-05 19:16 38.43911 11.85093 0 ft 418 kts 111°
2026-05-05 19:17 38.42905 11.88438 0 ft 415 kts 111°
2026-05-05 19:17 38.41885 11.91829 0 ft 412 kts 111°
2026-05-05 19:17 38.38867 12.01836 0 ft 403 kts 111°
2026-05-05 19:17 38.36543 12.10939 0 ft 394 kts 96°
2026-05-05 19:18 38.36390 12.14250 0 ft 391 kts 91°
2026-05-05 19:18 38.36360 12.17586 0 ft 389 kts 90°
2026-05-05 19:18 38.36390 12.20830 0 ft 386 kts 89°
2026-05-05 19:18 38.36456 12.24098 0 ft 372 kts 88°
2026-05-05 19:19 38.36540 12.27191 0 ft 353 kts 88°
2026-05-05 19:19 38.36633 12.30173 0 ft 338 kts 88°
2026-05-05 19:19 38.36730 12.33028 0 ft 325 kts 87°
2026-05-05 19:19 38.36827 12.35714 0 ft 315 kts 87°
2026-05-05 19:20 38.36924 12.38306 0 ft 307 kts 87°
2026-05-05 19:20 38.37016 12.40668 0 ft 298 kts 87°
2026-05-05 19:20 38.37112 12.43121 0 ft 281 kts 87°
2026-05-05 19:20 38.37196 12.45228 0 ft 274 kts 87°
2026-05-05 19:21 38.37287 12.47470 0 ft 275 kts 87°
2026-05-05 19:21 38.37378 12.49683 0 ft 275 kts 87°
2026-05-05 19:21 38.37472 12.51940 0 ft 274 kts 87°
2026-05-05 19:21 38.38052 12.65586 0 ft 274 kts 87°
2026-05-05 19:22 38.38181 12.68622 0 ft 275 kts 87°
2026-05-05 19:22 38.38268 12.70661 0 ft 265 kts 87°
2026-05-05 19:22 38.38347 12.72517 0 ft 250 kts 87°
2026-05-05 19:22 38.38425 12.74383 0 ft 234 kts 87°
2026-05-05 19:23 38.38498 12.76132 0 ft 220 kts 87°
2026-05-05 19:23 38.38569 12.77852 0 ft 218 kts 87°
2026-05-05 19:23 38.38646 12.79702 0 ft 218 kts 87°
2026-05-05 19:23 38.38717 12.81437 0 ft 216 kts 87°
2026-05-05 19:24 38.38791 12.83234 0 ft 219 kts 87°
2026-05-05 19:24 38.38867 12.85087 0 ft 222 kts 87°
2026-05-05 19:24 38.38936 12.86757 0 ft 222 kts 87°
2026-05-05 19:24 38.39007 12.88504 0 ft 221 kts 87°
2026-05-05 19:25 38.39586 13.02745 0 ft 214 kts 87°
2026-05-05 19:25 38.39745 13.06785 0 ft 214 kts 87°
2026-05-05 19:25 38.39808 13.08409 0 ft 214 kts 87°
2026-05-05 19:25 38.39876 13.10163 0 ft 212 kts 87°
2026-05-05 19:26 38.40075 13.15279 0 ft 212 kts 87°
2026-05-05 19:26 38.40217 13.21702 0 ft 212 kts 93°
2026-05-05 19:26 38.39246 13.27637 0 ft 212 kts 115°
2026-05-05 19:26 38.36480 13.32059 0 ft 212 kts 145°
2026-05-05 19:27 38.32822 13.33919 0 ft 209 kts 173°
2026-05-05 19:27 38.31525 13.34023 0 ft 207 kts 181°
2026-05-05 19:27 38.30309 13.33893 0 ft 203 kts 190°
2026-05-05 19:27 38.29199 13.33547 0 ft 190 kts 200°
2026-05-05 19:28 38.28151 13.32976 0 ft 191 kts 206°
2026-05-05 19:28 38.27098 13.32239 0 ft 189 kts 212°
2026-05-05 19:28 38.26158 13.31390 0 ft 190 kts 222°
2026-05-05 19:28 38.25352 13.30296 0 ft 190 kts 231°
2026-05-05 19:29 38.24681 13.29132 0 ft 187 kts 237°
2026-05-05 19:29 38.24039 13.27853 0 ft 187 kts 239°
2026-05-05 19:29 38.23448 13.26505 0 ft 186 kts 244°
2026-05-05 19:29 38.22974 13.25214 0 ft 186 kts 246°
2026-05-05 19:30 38.22501 13.23822 0 ft 184 kts 247°
2026-05-05 19:30 38.22041 13.22432 0 ft 184 kts 248°
2026-05-05 19:30 38.21563 13.20982 0 ft 183 kts 248°
2026-05-05 19:30 38.21088 13.19550 0 ft 182 kts 247°
2026-05-05 19:31 38.20621 13.18151 0 ft 183 kts 247°
2026-05-05 19:31 38.20159 13.16773 0 ft 173 kts 247°
2026-05-05 19:31 38.19718 13.15463 0 ft 161 kts 247°
2026-05-05 19:31 38.19339 13.14333 0 ft 143 kts 247°
2026-05-05 19:32 38.18967 13.13226 0 ft 131 kts 247°
2026-05-05 19:32 38.18628 13.12214 0 ft 121 kts 247°
2026-05-05 19:32 38.18370 13.11442 0 ft 80 kts 247°
2026-05-05 19:32 38.18257 13.11105 0 ft 21 kts 243°
2026-05-05 19:33 38.18211 13.10987 0 ft 16 kts 243°
2026-05-05 19:33 38.18164 13.10806 0 ft 29 kts 264°
2026-05-05 19:33 38.18183 13.10546 0 ft 30 kts 276°
2026-05-05 19:33 38.18264 13.10359 0 ft 23 kts 343°
2026-05-05 19:34 38.18349 13.10444 0 ft 18 kts 52°
2026-05-05 19:34 38.18413 13.10558 0 ft 16 kts 55°
2026-05-05 19:34 38.18473 13.10629 0 ft 11 kts 22°
2026-05-05 19:35 38.18548 13.10608 0 ft 4 kts 336°
2026-05-05 19:35 38.18556 13.10604 0 ft 0 kts 336°